Home > Weather > Imst > Past weeks

Flag for Austria Past Weather in Imst, Tyrol, Austria — Yesterday and Last 2 Weeks

Now
60 °F

Cool.


Feels Like: 60 °F
Forecast: 56 / 61 °F
Wind: 1 mph from Southwest

Location: Landeck

Current Time: Jun 25, 2016 at 5:36:03 AM

Latest Report: Jun 25, 2016 at 5:00 AM


Visibility: N/A

Pressure: 30.00 "Hg (27.30 "Hg at 797m altitude)

Humidity: 89%

Dew Point: 56 °F

Location of ImstLocation

Past Weather in Imst — Graph

°F

Imst Temperature Yesterday

Maximum temperature yesterday: 92 °F (at 3:00 PM)
Minimum temperature yesterday: 63 °F (at 6:00 AM)
Average temperature yesterday: 74 °F

High & Low Weather Summary for the Past Weeks

 TemperatureHumidityPressure
High92 °F (Jun 24, 3:00 PM)94% (Jun 15, 2:00 AM)30.29 "Hg (Jun 15, 2:00 AM)
Low45 °F (Jun 10, 6:00 AM)16% (Jun 23, 4:00 PM)29.38 "Hg (Jun 14, 3:00 PM)
Average61 °F69%29.91 "Hg
* Reported Jun 10 4:00 AM — Jun 25 4:00 AM, Imst, Weather by CustomWeather, © 2016

Note: Actual official high and low records may vary slightly from our data, if they occured in-between our weather recording intervals... More about our weather records

Advertising

Imst Weather History for the Previous 24 Hours

Scroll right to see more
 ConditionsComfort  
Time TempWeatherWind HumidityBarometerVisibility
4:00 AM
Sat, Jun 25
62 °FCool.1 mph86%30.00 "HgN/A
3:00 AM61 °FCool.2 mph91%30.03 "HgN/A
2:00 AM63 °FMild.2 mph89%30.04 "HgN/A
1:00 AM63 °FMild.1 mph89%30.06 "HgN/A
12:00 AM64 °FFog.1 mph89%30.04 "HgN/A
11:00 PM
Fri, Jun 24
65 °FSprinkles. Passing clouds.17 mph86%30.06 "Hg2 mi
10:00 PM69 °FMild.5 mph69%30.01 "HgN/A
9:00 PM71 °FMild.5 mph59%29.95 "HgN/A
8:00 PM74 °FMild.2 mph49%29.94 "HgN/A
7:00 PM84 °FWarm.1 mph41%29.82 "HgN/A
6:00 PM88 °FPleasantly warm.2 mph36%29.79 "HgN/A
3:00 PM92 °FHot.2 mph27%29.83 "HgN/A
2:00 PM90 °FHot.2 mph25%29.86 "HgN/A
1:00 PM89 °FHot.3 mph31%29.89 "HgN/A
12:00 PM86 °FWarm.No wind45%29.93 "HgN/A
11:00 AM80 °FWarm.2 mph43%29.99 "HgN/A
10:00 AM76 °FMild.5 mph49%30.03 "HgN/A
9:00 AM73 °FMild.2 mph52%30.07 "HgN/A
8:00 AM69 °FMild.2 mph56%30.11 "HgN/A
7:00 AM66 °FMild.3 mph61%30.13 "HgN/A
6:00 AM63 °FMild.2 mph69%30.15 "HgN/A
5:00 AM63 °FMild.2 mph69%30.14 "HgN/A
Weather by CustomWeather, © 2016

See weather overviewHow to use our weather pages